BUC900P LBSF-LOWL

Flight info

Callsign BUC900P
Flight time 1h 20m
Altitude 34000
Route OGOTA T228 UTEKA DCT SOVIN DCT BABIT DCT SUNIS DCT NURMI DCT LIMRA LIMRA2K
Aircraft A320/M-SDE3FGHIRWY/LB1

Departure

Time 2026-04-23 16:39
Airport Sofia Airport (LBSF)

Arrival

Time 2026-04-23 17:59
Airport Linz-Hörsching Airport (LOWL)
Time Latitude Longitude Altitude Speed Heading
2026-04-23 16:09 42.69066 23.40365 1749 ft 0 kts 196°
2026-04-23 16:29 42.69057 23.40362 1743 ft 5 kts 196°
2026-04-23 16:30 42.69006 23.40407 1745 ft 12 kts 111°
2026-04-23 16:30 42.68983 23.40518 1749 ft 13 kts 104°
2026-04-23 16:30 42.68954 23.40638 1745 ft 14 kts 108°
2026-04-23 16:30 42.68925 23.40768 1749 ft 15 kts 106°
2026-04-23 16:31 42.68916 23.40905 1748 ft 15 kts 73°
2026-04-23 16:31 42.68952 23.41048 1742 ft 17 kts 73°
2026-04-23 16:31 42.68996 23.41195 1745 ft 17 kts 49°
2026-04-23 16:31 42.69089 23.41205 1747 ft 15 kts 341°
2026-04-23 16:32 42.69193 23.41157 1747 ft 16 kts 341°
2026-04-23 16:32 42.69308 23.41170 1750 ft 18 kts 11°
2026-04-23 16:32 42.69422 23.41204 1750 ft 14 kts 12°
2026-04-23 16:32 42.69485 23.41292 1748 ft 15 kts 88°
2026-04-23 16:33 42.69477 23.41438 1743 ft 16 kts 95°
2026-04-23 16:33 42.69467 23.41592 1750 ft 17 kts 95°
2026-04-23 16:33 42.69458 23.41760 1750 ft 18 kts 94°
2026-04-23 16:33 42.69448 23.41914 1744 ft 15 kts 95°
2026-04-23 16:34 42.69439 23.42057 1751 ft 15 kts 94°
2026-04-23 16:34 42.69432 23.42183 1751 ft 14 kts 94°
2026-04-23 16:34 42.69425 23.42319 1751 ft 15 kts 94°
2026-04-23 16:34 42.69416 23.42464 1748 ft 16 kts 96°
2026-04-23 16:35 42.69405 23.42621 1745 ft 17 kts 94°
2026-04-23 16:35 42.69396 23.42789 1752 ft 18 kts 94°
2026-04-23 16:35 42.69385 23.42967 1752 ft 19 kts 94°
2026-04-23 16:35 42.69374 23.43156 1752 ft 21 kts 94°
2026-04-23 16:36 42.69365 23.43298 1752 ft 13 kts 95°
2026-04-23 16:36 42.69357 23.43423 1752 ft 14 kts 95°
2026-04-23 16:36 42.69348 23.43557 1744 ft 15 kts 94°
2026-04-23 16:36 42.69341 23.43697 1752 ft 14 kts 94°
2026-04-23 16:37 42.69334 23.43837 1746 ft 15 kts 94°
2026-04-23 16:37 42.69366 23.43940 1753 ft 10 kts 33°
2026-04-23 16:37 42.69436 23.43950 1746 ft 11 kts
2026-04-23 16:37 42.69511 23.43923 1753 ft 13 kts 301°
2026-04-23 16:38 42.69523 23.43796 1744 ft 15 kts 274°
2026-04-23 16:38 42.69545 23.43446 1748 ft 68 kts 275°
2026-04-23 16:38 42.69600 23.42545 1747 ft 120 kts 274°
2026-04-23 16:38 42.69679 23.41234 1751 ft 160 kts 274°
2026-04-23 16:39 42.69773 23.39627 2067 ft 171 kts 277°
2026-04-23 16:39 42.70097 23.38099 2728 ft 167 kts 299°
2026-04-23 16:39 42.70757 23.36822 3443 ft 165 kts 313°
2026-04-23 16:39 42.71639 23.35728 3829 ft 181 kts 327°
2026-04-23 16:40 42.72823 23.34900 4053 ft 203 kts 342°
2026-04-23 16:40 42.74293 23.34517 4328 ft 227 kts 354°
2026-04-23 16:40 42.75927 23.34299 4715 ft 249 kts 354°
2026-04-23 16:40 42.77704 23.34051 5480 ft 256 kts 354°
2026-04-23 16:41 42.79485 23.33798 6386 ft 257 kts 353°
2026-04-23 16:41 42.81272 23.33543 7233 ft 259 kts 353°
2026-04-23 16:41 42.83087 23.33280 8002 ft 264 kts 353°
2026-04-23 16:41 42.84931 23.33016 8776 ft 268 kts 354°
2026-04-23 16:42 42.86784 23.32881 9525 ft 272 kts 357°
2026-04-23 16:42 42.88702 23.32847 10238 ft 277 kts 358°
2026-04-23 16:42 42.90664 23.32852 10490 ft 298 kts 359°
2026-04-23 16:42 42.92821 23.32867 10641 ft 321 kts 359°
2026-04-23 16:43 42.95120 23.32874 10967 ft 336 kts 359°
2026-04-23 16:43 42.97454 23.32874 11583 ft 340 kts 358°
2026-04-23 16:43 42.99835 23.32864 12224 ft 344 kts 358°
2026-04-23 16:43 43.02242 23.32845 12857 ft 348 kts 358°
2026-04-23 16:44 43.04679 23.32820 13520 ft 351 kts 358°
2026-04-23 16:44 43.07139 23.32794 14115 ft 355 kts 358°
2026-04-23 16:44 43.09619 23.32769 14669 ft 358 kts 358°
2026-04-23 16:44 43.12160 23.32748 15219 ft 361 kts 358°
2026-04-23 16:45 43.14687 23.32725 15763 ft 365 kts 358°
2026-04-23 16:45 43.17241 23.32657 16333 ft 367 kts 354°
2026-04-23 16:45 43.19760 23.32043 16897 ft 369 kts 342°
2026-04-23 16:45 43.22119 23.30762 17464 ft 371 kts 332°
2026-04-23 16:46 43.24288 23.28821 18043 ft 374 kts 320°
2026-04-23 16:46 43.26199 23.26381 18589 ft 377 kts 316°
2026-04-23 16:46 43.28090 23.23875 19143 ft 379 kts 315°
2026-04-23 16:46 43.30004 23.21345 19711 ft 382 kts 316°
2026-04-23 16:47 43.31926 23.18809 20261 ft 385 kts 316°
2026-04-23 16:47 43.33870 23.16240 20794 ft 387 kts 316°
2026-04-23 16:47 43.35814 23.13664 21306 ft 390 kts 315°
2026-04-23 16:47 43.37757 23.11085 21789 ft 393 kts 315°
2026-04-23 16:48 43.39724 23.08470 22264 ft 395 kts 315°
2026-04-23 16:48 43.41705 23.05836 22711 ft 398 kts 315°
2026-04-23 16:48 43.43705 23.03170 23165 ft 400 kts 315°
2026-04-23 16:48 43.45714 23.00493 23599 ft 403 kts 315°
2026-04-23 16:49 43.47082 22.98671 23847 ft 404 kts 315°
2026-04-23 16:49 43.49772 22.95090 24322 ft 407 kts 315°
2026-04-23 16:49 43.51810 22.92370 24702 ft 409 kts 315°
2026-04-23 16:49 43.53861 22.89632 25062 ft 411 kts 315°
2026-04-23 16:50 43.55922 22.86880 25416 ft 412 kts 315°
2026-04-23 16:50 43.57987 22.84119 25760 ft 414 kts 315°
2026-04-23 16:50 43.59962 22.81472 26104 ft 416 kts 315°
2026-04-23 16:50 43.62014 22.78720 26461 ft 417 kts 315°
2026-04-23 16:51 43.64107 22.75912 26807 ft 419 kts 315°
2026-04-23 16:51 43.66207 22.73093 27148 ft 421 kts 315°
2026-04-23 16:51 43.68313 22.70258 27484 ft 423 kts 314°
2026-04-23 16:51 43.70427 22.67413 27830 ft 425 kts 314°
2026-04-23 16:52 43.72545 22.64564 28281 ft 424 kts 314°
2026-04-23 16:52 43.74654 22.61721 28757 ft 422 kts 314°
2026-04-23 16:52 43.76727 22.58914 29249 ft 421 kts 314°
2026-04-23 16:52 43.78818 22.56078 29736 ft 420 kts 314°
2026-04-23 16:53 43.80902 22.53254 30195 ft 419 kts 314°
2026-04-23 16:53 43.82311 22.51346 30456 ft 418 kts 314°
2026-04-23 16:53 43.84367 22.48555 30827 ft 418 kts 314°
2026-04-23 16:53 43.86446 22.45728 31199 ft 418 kts 314°
2026-04-23 16:54 43.88526 22.42897 31572 ft 418 kts 314°
2026-04-23 16:54 43.90584 22.40091 31945 ft 417 kts 314°
2026-04-23 16:54 43.92605 22.37203 32323 ft 417 kts 311°
2026-04-23 16:54 43.94547 22.34204 32710 ft 417 kts 310°
2026-04-23 16:55 43.96425 22.31138 33089 ft 416 kts 309°
2026-04-23 16:55 43.98277 22.28035 33460 ft 416 kts 309°
2026-04-23 16:55 44.00126 22.24932 33844 ft 416 kts 309°
2026-04-23 16:55 44.01985 22.21839 33978 ft 419 kts 309°
2026-04-23 16:56 44.05803 22.15589 34000 ft 429 kts 310°
2026-04-23 16:56 44.09683 22.09306 34002 ft 430 kts 310°
2026-04-23 16:57 44.13591 22.02967 34000 ft 431 kts 310°
2026-04-23 16:57 44.17490 21.96583 33999 ft 431 kts 310°
2026-04-23 16:58 44.21361 21.90230 34004 ft 432 kts 310°
2026-04-23 16:58 44.25268 21.83824 34011 ft 433 kts 310°
2026-04-23 16:59 44.29150 21.77444 34020 ft 433 kts 310°
2026-04-23 16:59 44.33044 21.71025 34024 ft 433 kts 310°
2026-04-23 17:00 44.36976 21.64520 34014 ft 433 kts 310°
2026-04-23 17:00 44.40863 21.58086 34035 ft 434 kts 310°
2026-04-23 17:01 44.44771 21.51602 34026 ft 434 kts 310°
2026-04-23 17:01 44.48655 21.45137 34027 ft 434 kts 310°
2026-04-23 17:02 44.52520 21.38692 34031 ft 434 kts 310°
2026-04-23 17:02 44.56415 21.32178 34032 ft 435 kts 310°
2026-04-23 17:03 44.60305 21.25657 34031 ft 435 kts 310°
2026-04-23 17:03 44.64174 21.19159 34042 ft 435 kts 310°
2026-04-23 17:04 44.68065 21.12609 34034 ft 435 kts 310°
2026-04-23 17:04 44.71945 21.06063 34039 ft 435 kts 310°
2026-04-23 17:05 44.75822 20.99508 34039 ft 435 kts 310°
2026-04-23 17:05 44.79697 20.92946 34032 ft 435 kts 310°
2026-04-23 17:06 44.83566 20.86377 34034 ft 436 kts 310°
2026-04-23 17:06 44.87446 20.79778 34019 ft 436 kts 310°
2026-04-23 17:07 44.91286 20.73216 34021 ft 436 kts 310°
2026-04-23 17:07 44.95158 20.66587 34010 ft 437 kts 310°
2026-04-23 17:08 44.99030 20.59954 34016 ft 437 kts 310°
2026-04-23 17:08 45.02897 20.53312 34019 ft 438 kts 310°
2026-04-23 17:09 45.06766 20.46625 34027 ft 438 kts 310°
2026-04-23 17:09 45.10598 20.39984 34026 ft 438 kts 310°
2026-04-23 17:10 45.14450 20.33288 34017 ft 438 kts 310°
2026-04-23 17:10 45.18288 20.26587 34022 ft 438 kts 310°
2026-04-23 17:11 45.22136 20.19870 34007 ft 437 kts 310°
2026-04-23 17:11 45.25972 20.13158 34011 ft 437 kts 310°
2026-04-23 17:12 45.29806 20.06436 34017 ft 437 kts 310°
2026-04-23 17:12 45.33611 19.99741 34012 ft 438 kts 310°
2026-04-23 17:13 45.37437 19.92992 34018 ft 438 kts 310°
2026-04-23 17:13 45.41270 19.86224 34013 ft 438 kts 311°
2026-04-23 17:14 45.45078 19.79502 34019 ft 438 kts 311°
2026-04-23 17:14 45.48898 19.72720 34015 ft 438 kts 310°
2026-04-23 17:15 45.52715 19.65920 34021 ft 438 kts 310°
2026-04-23 17:15 45.56514 19.59134 34021 ft 439 kts 310°
2026-04-23 17:16 45.60328 19.52305 34026 ft 439 kts 311°
2026-04-23 17:16 45.63812 19.46067 34025 ft 439 kts 311°
2026-04-23 17:17 45.67625 19.39221 34031 ft 439 kts 310°
2026-04-23 17:17 45.71432 19.32362 34028 ft 439 kts 310°
2026-04-23 17:18 45.77136 19.22069 34037 ft 440 kts 310°
2026-04-23 17:19 45.80938 19.15179 34040 ft 440 kts 310°
2026-04-23 17:19 45.84734 19.08271 34031 ft 440 kts 310°
2026-04-23 17:20 45.88536 19.01352 34038 ft 440 kts 310°
2026-04-23 17:21 45.95997 18.87422 34044 ft 442 kts 308°
2026-04-23 17:21 46.01266 18.76425 34052 ft 443 kts 307°
2026-04-23 17:22 46.06541 18.65478 34043 ft 443 kts 308°
2026-04-23 17:23 46.11846 18.54608 34054 ft 443 kts 308°
2026-04-23 17:24 46.16507 18.44989 34014 ft 427 kts 308°
2026-04-23 17:24 46.18171 18.41524 34055 ft 415 kts 308°
2026-04-23 17:24 46.21538 18.34530 34060 ft 432 kts 308°
2026-04-23 17:25 46.26767 18.23652 34047 ft 443 kts 308°
2026-04-23 17:26 46.33767 18.08982 34052 ft 444 kts 308°
2026-04-23 17:27 46.39036 17.97916 34070 ft 444 kts 307°
2026-04-23 17:27 46.42537 17.90543 34062 ft 445 kts 308°
2026-04-23 17:28 46.46052 17.83124 34067 ft 445 kts 307°
2026-04-23 17:28 46.49554 17.75694 34058 ft 446 kts 308°
2026-04-23 17:29 46.53053 17.68240 34064 ft 446 kts 308°
2026-04-23 17:30 46.58317 17.57026 34066 ft 447 kts 308°
2026-04-23 17:30 46.63550 17.45814 34069 ft 447 kts 308°
2026-04-23 17:31 46.67050 17.38305 34075 ft 448 kts 308°
2026-04-23 17:31 46.70545 17.30774 34069 ft 448 kts 308°
2026-04-23 17:32 46.74033 17.23231 34070 ft 449 kts 308°
2026-04-23 17:32 46.77524 17.15670 34067 ft 449 kts 308°
2026-04-23 17:33 46.81014 17.08103 34072 ft 449 kts 308°
2026-04-23 17:33 46.84514 17.00470 34063 ft 450 kts 308°
2026-04-23 17:34 46.87994 16.92867 34069 ft 450 kts 308°
2026-04-23 17:35 46.93218 16.81422 34067 ft 451 kts 308°
2026-04-23 17:35 46.98443 16.69920 34066 ft 451 kts 308°
2026-04-23 17:36 47.01922 16.62228 33704 ft 452 kts 309°
2026-04-23 17:36 47.03674 16.58359 33879 ft 455 kts 309°
2026-04-23 17:36 47.05429 16.54482 34079 ft 457 kts 309°
2026-04-23 17:37 47.08942 16.46676 34097 ft 459 kts 309°
2026-04-23 17:38 47.14213 16.34890 34100 ft 459 kts 308°
2026-04-23 17:38 47.17497 16.26795 34099 ft 461 kts 305°
2026-04-23 17:39 47.20554 16.18522 34099 ft 462 kts 304°
2026-04-23 17:39 47.23628 16.10194 34089 ft 462 kts 305°
2026-04-23 17:40 47.26753 16.01916 34081 ft 463 kts 305°
2026-04-23 17:40 47.29912 15.93617 34082 ft 464 kts 306°
2026-04-23 17:41 47.33055 15.85297 34081 ft 466 kts 305°
2026-04-23 17:41 47.37779 15.72714 34092 ft 467 kts 305°
2026-04-23 17:42 47.42493 15.60082 32926 ft 473 kts 305°
2026-04-23 17:42 47.44104 15.55772 31678 ft 483 kts 305°
2026-04-23 17:43 47.45733 15.51405 30794 ft 485 kts 305°
2026-04-23 17:43 47.47347 15.47054 29611 ft 491 kts 304°
2026-04-23 17:43 47.48974 15.42639 28917 ft 484 kts 304°
2026-04-23 17:43 47.50561 15.38309 28295 ft 476 kts 304°
2026-04-23 17:44 47.52133 15.34024 27630 ft 471 kts 304°
2026-04-23 17:44 47.53691 15.29785 26954 ft 466 kts 304°
2026-04-23 17:44 47.56758 15.21448 25660 ft 455 kts 304°
2026-04-23 17:45 47.58266 15.17341 25024 ft 450 kts 303°
2026-04-23 17:45 47.61223 15.09272 23764 ft 441 kts 303°
2026-04-23 17:45 47.62680 15.05291 23063 ft 436 kts 304°
2026-04-23 17:46 47.65523 14.97482 21900 ft 423 kts 303°
2026-04-23 17:46 47.66937 14.93694 21314 ft 416 kts 307°
2026-04-23 17:46 47.68617 14.90234 20749 ft 410 kts 311°
2026-04-23 17:47 47.70308 14.86862 20202 ft 405 kts 311°
2026-04-23 17:47 47.71973 14.83525 19667 ft 400 kts 310°
2026-04-23 17:47 47.75259 14.76917 18576 ft 395 kts 310°
2026-04-23 17:48 47.76869 14.73671 17977 ft 393 kts 310°
2026-04-23 17:48 47.78487 14.70405 17389 ft 390 kts 310°
2026-04-23 17:48 47.80086 14.67169 16816 ft 387 kts 310°
2026-04-23 17:48 47.81669 14.63960 16220 ft 382 kts 310°
2026-04-23 17:49 47.83234 14.60778 15626 ft 377 kts 310°
2026-04-23 17:49 47.84735 14.57728 15037 ft 375 kts 310°
2026-04-23 17:49 47.85823 14.55519 14615 ft 374 kts 310°
2026-04-23 17:49 47.87344 14.52425 14011 ft 371 kts 310°
2026-04-23 17:50 47.88865 14.49341 13367 ft 367 kts 310°
2026-04-23 17:50 47.91854 14.43326 12158 ft 355 kts 311°
2026-04-23 17:50 47.93410 14.40466 11531 ft 352 kts 313°
2026-04-23 17:51 47.94988 14.37709 10941 ft 347 kts 314°
2026-04-23 17:51 47.96547 14.35045 10746 ft 332 kts 314°
2026-04-23 17:51 47.99442 14.30064 10490 ft 303 kts 314°
2026-04-23 17:52 48.00781 14.27721 10368 ft 291 kts 314°
2026-04-23 17:52 48.03485 14.23579 10117 ft 265 kts 334°
2026-04-23 17:52 48.05248 14.22841 9564 ft 269 kts
2026-04-23 17:53 48.08517 14.25207 8919 ft 273 kts 39°
2026-04-23 17:53 48.09892 14.27172 8549 ft 273 kts 39°
2026-04-23 17:53 48.11259 14.29150 8176 ft 273 kts 39°
2026-04-23 17:54 48.12618 14.31126 7707 ft 271 kts 39°
2026-04-23 17:54 48.13975 14.33094 7064 ft 271 kts 39°
2026-04-23 17:54 48.16689 14.37024 5668 ft 276 kts 38°
2026-04-23 17:55 48.19422 14.40977 4811 ft 256 kts 36°
2026-04-23 17:55 48.20870 14.42157 4667 ft 225 kts
2026-04-23 17:55 48.22325 14.41950 4556 ft 203 kts 333°
2026-04-23 17:56 48.23399 14.40734 4218 ft 199 kts 306°
2026-04-23 17:56 48.23922 14.36799 3790 ft 190 kts 270°
2026-04-23 17:56 48.23858 14.34883 3679 ft 178 kts 270°
2026-04-23 17:57 48.23789 14.33063 3419 ft 172 kts 270°
2026-04-23 17:57 48.23725 14.31314 2977 ft 163 kts 271°
2026-04-23 17:57 48.23641 14.28327 2471 ft 138 kts 271°
2026-04-23 17:58 48.23607 14.26886 2048 ft 135 kts 270°
2026-04-23 17:58 48.23566 14.25450 1737 ft 143 kts 265°
2026-04-23 17:58 48.23487 14.23905 1528 ft 153 kts 266°
2026-04-23 17:58 48.23469 14.22367 1285 ft 140 kts 264°
2026-04-23 17:59 48.23397 14.20952 1090 ft 131 kts 266°
2026-04-23 17:59 48.23352 14.19641 988 ft 115 kts 266°
2026-04-23 17:59 48.23325 14.18822 987 ft 36 kts 267°
2026-04-23 17:59 48.23318 14.18586 988 ft 28 kts 267°
2026-04-23 18:00 48.23304 14.18232 989 ft 40 kts 266°
2026-04-23 18:00 48.23301 14.17951 989 ft 19 kts 290°
2026-04-23 18:00 48.23408 14.17907 986 ft 15 kts 13°
2026-04-23 18:00 48.23453 14.17924 986 ft 7 kts 13°
2026-04-23 18:01 48.23507 14.17946 991 ft 9 kts 15°
2026-04-23 18:01 48.23576 14.17974 986 ft 11 kts 15°
2026-04-23 18:01 48.23657 14.18009 990 ft 13 kts 16°
2026-04-23 18:01 48.23717 14.18089 986 ft 13 kts 74°
2026-04-23 18:02 48.23721 14.18181 986 ft 8 kts 88°
2026-04-23 18:02 48.23724 14.18274 986 ft 10 kts 87°
2026-04-23 18:02 48.23727 14.18380 990 ft 10 kts 87°
2026-04-23 18:02 48.23732 14.18498 986 ft 12 kts 86°
2026-04-23 18:03 48.23737 14.18595 986 ft 9 kts 85°
2026-04-23 18:03 48.23742 14.18696 992 ft 11 kts 85°
2026-04-23 18:03 48.23743 14.18817 988 ft 13 kts 90°
2026-04-23 18:03 48.23753 14.18930 989 ft 9 kts 56°
2026-04-23 18:04 48.23805 14.18946 988 ft 6 kts
2026-04-23 18:04 48.23818 14.18946 988 ft 3 kts 356°
2026-04-23 18:04 48.23858 14.18941 992 ft 7 kts 356°
2026-04-23 18:04 48.23875 14.18965 993 ft 2 kts 81°
2026-04-23 18:05 48.23874 14.18994 986 ft 4 kts 90°
2026-04-23 18:05 48.23875 14.19017 989 ft 0 kts 87°
2026-04-23 18:05 48.23875 14.19018 989 ft 0 kts 87°